Date/Time (UTC),ProbHail,ProbWind,ProbTor,MESH,VIL Density,Flash Rate,Max Flash Density,LJA sigma-level,Max 0-2km AzShear,LLAZ 98th%,MLAZ 98th%,MUCAPE,MLCAPE,CAPE -10C to -30C,MLCIN,SRH 0-1km AGL,EBShear,MeanWind 0-1km AGL,Norm. Sat. Growth Rate,PWAT,WBZ,AvgBeamHgt,size
2019/05/20 21:36,3,3,1,0.1,0.3,1,0.15,0.0,5,4,7,2791,1934,614,9,58,64.1,29.0,0,1.1,10.1,0.9,44
2019/05/20 21:38,13,23,3,0.28,0.5,8,0.21,0.0,7,5,7,2984,2119,681,9,64,64.3,29.7,0,1.2,10.1,0.6,184
2019/05/20 21:40,57,47,20,0.72,0.5,15,0.21,0.0,13,5,12,2986,2153,701,9,64,65.2,29.9,0,1.2,10.1,0.8,547
2019/05/20 21:42,60,72,30,0.82,1.9,15,0.21,0.0,14,6,13,2981,2125,692,9,63,64.6,30.0,0,1.1,10.1,0.7,276
2019/05/20 21:44,85,91,40,0.9,2.3,33,0.46,0.0,11,7,12,3103,2208,711,8,67,64.9,30.1,0,1.2,10.1,0.6,373
2019/05/20 21:46,87,92,51,1.08,2.3,33,0.46,0.0,11,8,12,3083,2170,698,8,67,64.6,30.0,0,1.2,10.1,0.6,255
2019/05/20 21:48,93,92,45,1.22,2.4,33,0.46,0.0,11,8,12,3173,2253,727,8,69,65.4,30.2,0,1.2,10.1,0.5,335
2019/05/20 21:50,94,95,50,1.22,2.6,38,0.46,1.5,11,8,9,3353,2397,771,7,74,66.7,30.6,0,1.2,10.1,0.4,416
2019/05/20 21:52,98,95,38,1.78,3.8,38,0.46,0.0,12,6,9,3489,2518,806,7,79,67.6,30.8,0,1.3,10.1,0.3,427
2019/05/20 21:54,98,95,14,1.8,3.8,38,0.46,0.2,7,6,9,3490,3165,764,9,74,66.4,34.3,0,1.3,10.2,0.3,477
2019/05/20 21:56,98,95,17,1.8,3.8,38,0.46,0.0,9,6,10,3578,3253,779,9,75,66.6,34.4,0,1.3,10.2,0.3,490
2019/05/20 21:58,96,95,17,1.8,3.8,24,0.46,0.0,10,6,10,3698,3356,801,9,77,66.8,34.5,0,1.3,10.2,0.2,465
2019/05/20 22:00,92,95,17,1.37,3.5,24,0.46,0.0,9,6,10,3775,3412,812,9,78,67.1,34.6,0,1.3,10.2,0.2,484
2019/05/20 22:01,92,95,24,1.37,3.5,24,0.46,0.3,12,6,8,3825,3452,822,9,79,67.1,34.7,0,1.3,10.2,0.2,489
2019/05/20 22:04,74,88,27,0.93,2.6,16,0.46,0.0,12,6,8,3874,3484,830,9,81,67.3,34.7,0,1.3,10.2,0.2,481
2019/05/20 22:06,64,78,35,0.8,2.3,16,0.46,1.9,9,7,10,3853,3444,842,9,81,68.8,34.7,0,1.3,10.2,0.3,691
2019/05/20 22:08,64,79,35,0.78,2.2,16,0.46,0.2,9,7,9,3895,3484,852,9,82,69.2,34.8,0,1.3,10.2,0.3,661
2019/05/20 22:10,66,79,27,0.81,2.1,14,0.46,0.0,9,7,11,3927,3518,860,9,82,69.7,34.8,0,1.3,10.2,0.2,594
2019/05/20 22:12,69,85,27,0.88,2.6,15,0.46,0.3,9,7,10,3975,3560,872,9,82,70.2,34.9,0,1.3,10.2,0.2,576
2019/05/20 22:14,83,97,27,0.91,2.6,29,0.46,3.2,9,7,10,3997,3584,876,9,82,70.4,34.9,0,1.3,10.2,0.3,545
2019/05/20 22:16,84,91,42,0.98,2.6,29,0.46,0.0,12,8,10,4028,3602,882,9,83,70.6,34.9,0,1.3,10.2,0.2,577
2019/05/20 22:18,88,94,41,1.04,2.6,31,0.42,1.3,12,8,10,4081,3638,888,9,84,70.7,35.0,0,1.4,10.2,0.2,608
2019/05/20 22:20,95,95,47,1.31,2.7,37,0.42,0.8,12,8,10,4095,3650,890,9,85,70.7,35.1,0,1.4,10.2,0.2,608
2019/05/20 22:22,95,95,46,1.35,2.7,37,0.39,0.0,12,8,10,4174,3696,901,9,88,71.1,35.2,0,1.4,10.2,0.2,651
2019/05/20 22:24,95,95,46,1.39,2.8,37,0.39,0.0,14,8,9,4201,3708,902,9,88,71.0,35.2,0,1.4,10.2,0.2,609
2019/05/20 22:26,96,95,51,1.39,2.8,53,0.44,3.5,14,8,9,4248,3723,906,9,90,71.1,35.3,0,1.4,10.2,0.2,611
2019/05/20 22:28,96,95,65,1.39,2.8,53,0.44,0.0,14,8,13,4314,3748,914,9,93,71.3,35.4,0,1.4,10.2,0.3,596
2019/05/20 22:30,94,95,73,1.15,2.8,53,0.44,0.0,17,8,13,4334,3751,919,9,93,71.4,35.4,0,1.4,10.2,0.3,571
2019/05/20 22:32,94,95,73,1.15,2.5,53,0.44,0.0,17,8,13,4339,3829,970,10,90,73.3,35.5,0,1.4,10.2,0.3,375
2019/05/20 22:34,92,95,82,1.15,2.7,36,0.44,0.1,18,10,10,4356,3821,957,9,94,73.1,35.6,0,1.4,10.2,0.3,444
2019/05/20 22:36,93,95,82,1.15,2.7,45,0.51,1.1,18,10,10,4373,3832,956,9,94,73.1,35.7,0,1.4,10.2,0.3,446
2019/05/20 22:38,93,95,78,1.15,2.7,45,0.51,0.0,18,10,11,4425,3873,967,9,96,73.5,35.7,0,1.4,10.2,0.4,551
2019/05/20 22:40,94,95,67,1.16,2.8,50,0.51,2.0,13,8,11,4429,3875,967,9,97,73.5,35.7,0,1.4,10.2,0.4,562
2019/05/20 22:42,95,95,67,1.2,2.8,50,0.51,0.0,12,8,10,4432,3872,983,9,97,73.7,35.7,0,1.4,10.2,0.3,508
2019/05/20 22:44,95,95,56,1.2,2.8,50,0.51,0.3,12,8,10,4455,3878,975,9,98,73.6,35.9,0,1.4,10.2,0.3,559
2019/05/20 22:46,96,95,48,1.2,2.8,57,0.51,1.2,12,8,9,4471,3884,971,9,98,73.6,36.0,0,1.4,10.3,0.4,547
2019/05/20 22:48,94,95,51,1.09,2.8,57,0.55,0.0,12,8,9,4504,3884,956,8,100,73.4,36.2,0,1.4,10.3,0.4,637
2019/05/20 22:50,94,95,44,1.09,2.8,57,0.58,0.0,10,7,10,4520,3908,981,9,102,74.0,36.0,0,1.4,10.3,0.4,676
2019/05/20 22:52,97,95,43,1.21,2.8,80,0.66,3.1,10,7,10,4532,3914,988,9,102,74.2,36.0,0,1.4,10.3,0.4,705
2019/05/20 22:54,97,95,43,1.23,2.5,80,0.66,0.0,11,7,10,4553,3923,992,9,103,74.3,36.1,0,1.4,10.3,0.5,756
2019/05/20 22:56,97,95,51,1.23,2.8,80,0.66,0.4,11,7,10,5535,4628,1227,7,242,79.0,40.9,0,1.5,10.2,0.5,730
2019/05/20 22:58,98,95,51,1.38,3.1,80,0.66,0.1,11,7,10,5589,4675,1215,7,244,78.8,41.0,0,1.5,10.2,0.5,682
2019/05/20 23:00,98,95,51,1.4,3.1,68,0.66,0.6,11,7,9,5672,4729,1196,7,243,78.7,41.1,0,1.5,10.2,0.5,717
2019/05/20 23:03,98,95,58,1.4,3.2,68,0.66,0.0,10,8,9,5740,4779,1179,6,244,78.6,41.2,0,1.5,10.3,0.5,625
2019/05/20 23:05,98,95,50,1.4,3.2,68,0.66,0.0,10,8,9,5772,4782,1169,6,244,78.5,41.2,0,1.5,10.3,0.5,640
2019/05/20 23:08,98,95,50,1.39,3.2,68,0.66,0.0,11,8,8,5808,4792,1156,6,244,78.5,41.3,0,1.5,10.3,0.5,570
2019/05/20 23:10,98,95,50,1.33,2.8,73,0.66,3.1,11,8,8,5823,4827,1157,7,243,78.5,41.4,0,1.6,10.3,0.5,481
2019/05/20 23:12,98,95,47,1.33,2.8,73,0.66,0.0,11,8,8,5849,4821,1151,6,243,78.3,41.3,0,1.6,10.3,0.5,548
2019/05/20 23:14,97,95,68,1.22,2.8,73,0.66,0.6,18,8,7,5863,4811,1147,6,243,78.2,41.3,0,1.5,10.2,0.5,590
2019/05/20 23:16,97,95,81,1.28,3.0,73,0.66,0.2,22,11,7,5876,4806,1143,6,244,78.0,41.2,0,1.5,10.2,0.6,618
2019/05/20 23:18,97,95,93,1.28,3.0,69,0.66,0.5,24,13,13,5910,4783,1130,6,243,77.7,41.2,0,1.5,10.2,0.6,676
2019/05/20 23:20,98,95,93,1.28,3.1,100,0.66,2.3,24,13,13,5934,4779,1124,6,242,77.5,41.2,0,1.5,10.2,0.7,673
2019/05/20 23:22,97,95,93,1.22,3.1,100,0.66,0.0,24,13,13,5936,4780,1124,7,242,77.5,41.2,0,1.5,10.2,0.7,666
2019/05/20 23:24,97,95,93,1.2,3.1,100,0.55,0.1,24,13,13,5943,4761,1118,6,242,77.3,41.2,0,1.5,10.1,0.7,688
2019/05/20 23:26,97,95,93,1.2,3.2,100,0.55,0.0,24,12,10,5960,4756,1113,7,241,76.9,41.1,0,1.5,9.9,0.8,699
2019/05/20 23:28,95,95,92,1.13,3.2,65,0.55,0.0,19,11,10,5968,4760,1112,7,241,76.9,41.1,0,1.5,9.9,0.8,638
2019/05/20 23:30,97,95,91,1.17,3.2,87,0.55,1.4,19,11,12,5990,4745,1108,8,240,76.5,41.1,0,1.5,9.8,0.9,665
2019/05/20 23:32,97,95,90,1.17,3.3,87,0.55,0.0,18,10,11,6007,4714,1105,9,240,75.9,41.0,0,1.5,9.7,1.0,635
2019/05/20 23:34,97,95,89,1.24,3.3,87,0.55,0.2,18,10,11,6019,4682,1107,11,239,75.5,41.0,0,1.5,9.6,1.1,689
2019/05/20 23:36,98,95,88,1.32,3.3,87,0.55,0.0,18,10,11,6013,4656,1105,11,239,75.4,40.9,0,1.5,9.6,1.2,712
2019/05/20 23:38,97,95,90,1.32,3.1,62,0.55,0.0,20,11,11,6014,4640,1104,11,239,75.2,40.9,0,1.5,9.6,1.2,668
2019/05/20 23:40,98,95,90,1.4,3.1,62,0.55,0.1,20,11,11,6002,4637,1104,10,240,75.1,40.9,0,1.5,9.5,1.3,659
2019/05/20 23:42,98,95,90,1.4,3.4,69,0.55,1.5,20,11,11,5978,4625,1105,9,240,75.0,40.8,0,1.5,9.5,1.3,677
2019/05/20 23:44,98,95,90,1.4,3.4,69,0.55,0.0,20,11,11,5994,4618,1107,10,239,74.7,40.8,0,1.5,9.5,1.4,657
2019/05/20 23:46,98,95,87,1.39,3.4,69,0.55,0.0,22,10,11,5980,4620,1110,10,239,74.6,40.7,0,1.5,9.5,1.4,634
2019/05/20 23:48,98,95,87,1.38,3.2,69,0.55,0.7,22,10,10,5993,4606,1118,11,239,74.2,40.6,0,1.5,9.6,1.6,779
2019/05/20 23:50,97,95,82,1.38,3.0,53,0.55,0.0,22,9,10,6012,4603,1122,14,238,73.9,40.5,0,1.5,9.6,1.6,846
2019/05/20 23:52,98,95,71,1.52,3.1,54,0.54,0.5,16,8,10,6002,4590,1133,15,238,73.3,40.4,0,1.5,9.7,1.8,865
2019/05/20 23:54,97,95,67,1.52,3.3,54,0.54,0.0,16,8,10,5993,4567,1144,41,287,79.5,39.1,0,1.5,10.5,2.0,844
2019/05/20 23:56,98,95,63,1.52,3.3,92,0.61,6.9,13,7,10,5971,4559,1148,41,287,79.3,39.2,0,1.5,10.5,2.1,871
2019/05/20 23:58,98,95,67,1.52,3.3,95,0.61,0.2,15,8,10,5955,4548,1149,41,287,79.1,39.2,0,1.5,10.5,2.1,867
2019/05/21 00:00,95,95,73,1.04,3.0,95,0.61,0.0,13,9,9,5933,4530,1154,41,287,78.7,39.2,0,1.5,10.5,2.2,919
2019/05/21 00:02,98,95,70,1.54,3.4,95,0.61,1.3,13,9,9,5985,4566,1169,43,297,79.0,39.3,0,1.5,10.4,1.4,1406
2019/05/21 00:04,98,95,69,1.54,3.4,95,0.61,0.1,13,9,10,5984,4559,1166,42,297,79.0,39.2,0,1.5,10.4,1.5,1398
